Preview of NWS' New Version of Forecast
This preview is not operational and should not be used for support decisions.

Regional Weather Roundup (RWR)

Issued by National Weather Service (NWS)

                            
000
ASUS45 KABQ 210210
RWRNM 
NEW MEXICO REGIONAL WEATHER ROUNDUP
NATIONAL WEATHER SERVICE ALBUQUERQUE NM
800 PM MDT FRI SEP 20 2019

NOTE: "FAIR" MEANS FEW OR NO CLOUDS BELOW 12,000 FEET AGL WITH NO
       SIGNIFICANT WEATHER OR OBSTRUCTIONS TO VISION.

      THIS PRODUCT IS RELEASED AS TWO VERSIONS.  ONE VERSION NEAR
      THE TOP OF THE HOUR CONTAINING PRELIMINARY DATA FROM ALBUQUERQUE
      AND OTHER STATIONS.  A FINAL VERSION WITH ADDITIONAL DATA IS 
      ISSUED ABOUT 10 MINUTES AFTER THE HOUR.
 
NMZ501-503-504-510>518-210300-
NORTHWEST PLATEAU/NORTHCENTRAL MOUNTAINS
  
CITY           SKY/WX    TMP DP  RH WIND       PRES   REMARKS
FARMINGTON     FAIR      71  19  14 W10       29.95R                  
LOS ALAMOS     FAIR      68  26  20 SW9       30.08R                  
SANTA FE       FAIR      69  28  21 SW8       30.02R                  
TAOS           FAIR      66  27  23 SW9       30.07R                  

$$
NMZ402-403-502-505>509-210300-
WESTCENTRAL MOUNTAINS/SOUTHWEST MOUNTAINS
  
CITY           SKY/WX    TMP DP  RH WIND       PRES   REMARKS
GALLUP         FAIR      68  27  21 SW12G22   30.06R                  
GRANTS         FAIR      61  31  33 W5        30.09R                  
SILVER CITY    FAIR      70  43  38 NW6       30.04R                  

$$
NMZ407-409-411-412-210300-
SOUTHERN DESERTS
  
CITY           SKY/WX    TMP DP  RH WIND       PRES   REMARKS
DEMING         FAIR      77  47  34 W6        29.95R                  
LAS CRUCES     FAIR      79  44  28 SW5       29.98R                  
HOLLOMAN AFB   FAIR      80  43  26 SW9       29.95R                  
ALAMOGORDO     FAIR      77  43  29 SW5       29.95R                  
T OR C         FAIR      80  38  22 W7        29.97R                  

$$
NMZ519>523-210300-
CENTRAL VALLEYS/CENTRAL HIGHLANDS
  
CITY           SKY/WX    TMP DP  RH WIND       PRES   REMARKS
ALBUQUERQUE    FAIR      79  31  17 SW10      29.96R                  
DOUBLE EAGLE   CLEAR     68  34  28 S8        30.00R                  
MORIARTY ARPT  MOCLDY    64  37  36 S8        30.05R                  
CLINES CORNERS FAIR      66  34  30 SW14      30.11R                  
BELEN          FAIR      76  25  15 SW12      29.97R                  
SOCORRO        FAIR      79  29  15 SW10      29.95R                  

$$
NMZ524>526-539-540-210300-
SOUTHCENTRAL MOUNTAINS
  
CITY           SKY/WX    TMP DP  RH WIND       PRES   REMARKS
RUIDOSO        FAIR      64  41  42 SW8       30.14S                  

$$
NMZ527>531-210300-
NORTHEAST HIGHLANDS/NORTHEAST PLAINS
  
CITY           SKY/WX    TMP DP  RH WIND       PRES   REMARKS
RATON          FAIR      62  31  31 W10       29.98R                  
CLAYTON        FAIR      65  60  84 S10       29.94R                  

$$
NMZ532>537-210300-
EASTCENTRAL PLAINS
  
CITY           SKY/WX    TMP DP  RH WIND       PRES   REMARKS
TUCUMCARI      FAIR      67  59  75 S3        29.89R                  
CANNON AFB     FAIR      70  65  85 W3        30.00R                  
CLOVIS AIRPORT FAIR      70  65  84 SE14      29.98R                  

$$
NMZ028-029-033-538-210300-
SOUTHEAST PLAINS
  
CITY           SKY/WX    TMP DP  RH WIND       PRES   REMARKS
ROSWELL        FAIR      83  59  44 S10       29.89R                  
ARTESIA        FAIR      82  63  51 S5        29.91R                  
CARLSBAD       FAIR      80  61  52 S14       29.89R                  
HOBBS          MOCLDY    79  63  57 S17       29.95R                  


$$